Regional Weather Roundup
Issued by NWS

Home | Current Version | Previous Version | Text Only | Print | Product List | Glossary On
Versions: 1 2 3 4 5 6 7 8 9 10 11 12 13 14 15 16 17 18 19 20 21 22 23 24 25 26 27
000
ASUS45 KBOU 201510
RWRCO

WEATHER ROUNDUP FOR COLORADO
NATIONAL WEATHER SERVICE DENVER/BOULDER CO
800 AM MST SAT JAN 20 2018

NOTE: "FAIR" INDICATES FEW OR NO CLOUDS BELOW 12000 FEET WITH NO
SIGNIFICANT WEATHER AND/OR OBSTRUCTIONS TO VISIBILITY.

COZ001>005-013-030-031-201600-
...NORTHWEST COLORADO...

CITY           SKY/WX    TMP DP  RH WIND       PRES   REMARKS
CRAIG          CLOUDY    32  25  75 NE7       29.77F WCI  26
HAYDEN         CLOUDY   N/A N/A N/A E7        29.77F
MEEKER         CLOUDY    39  26  59 CALM      29.75F
RABBIT EARS PA PTSUNNY   28  21  74 S13G25    29.86S WCI  18
STEAMBOAT SPGS CLOUDY    30  23  74 W3        29.79F
WALDEN         MOCLDY    27  21  80 SE7       29.83S WCI  19
$$

COZ006>008-011-201600-
...WEST CENTRAL VALLEYS...

CITY           SKY/WX    TMP DP  RH WIND       PRES   REMARKS
GRAND JUNCTION CLOUDY    49  24  37 S12       29.75S
MONTROSE       FAIR      42  22  44 SE7       29.82F
EAGLE          CLOUDY    29  20  69 E5        29.85S WCI  24
RIFLE          CLOUDY    31  25  78 W7        29.79F WCI  24
DELTA          CLOUDY    46  25  43 S5        29.81S
NUCLA          FAIR      46  19  34 S23G31    29.85S
$$

COZ017>023-064>068-201600-
...SOUTHWEST COLORADO...

CITY           SKY/WX    TMP DP  RH WIND       PRES   REMARKS
DURANGO        CLOUDY    27  20  75 E5        29.96S WCI  22
CORTEZ         CLOUDY    36  24  62 CALM      29.89F
PAGOSA SPRINGS CLOUDY    30  18  60 CALM      30.00S
TELLURIDE      FAIR      38  18  45 SW9G31    29.93S
WOLF CREEK PAS NOT AVBL
$$

COZ009-010-012-014-032>034-037-058>063-201600-
...CENTRAL COLORADO...

CITY           SKY/WX    TMP DP  RH WIND       PRES   REMARKS
ASPEN          CLOUDY    34  21  59 SW6       29.83F WCI  29
BUENA VISTA    FAIR      21  13  71 W9        29.92R WCI  10
COPPER MTN     NOT AVBL
BERTHOUD PASS  FAIR      21  10  63 W24G37    29.93F WCI   4
COTTONWOOD PAS   N/A     37  18  44 SW8       29.93S
GUNNISON       FAIR      10   6  84 NE3       29.94F
KREMMLING      CLOUDY    28  21  74 CALM      29.86S
LEADVILLE      FAIR      23  12  62 CALM      29.89S
MONARCH PASS   CLOUDY    23  14  68 SW25      30.07S WCI   7
SALIDA         CLOUDY    40  15  34 SE8G16    29.97S
SUNLIGHT       LGT SNOW  27  21  80 SW17G32   29.89F WCI  14
WILKERSON PASS FAIR      23  12  63 SW15G21   29.95S WCI  10
$$

COZ069>075-201600-
...SAN LUIS VALLEY/SANGRE DE CRISTO MOUNTAINS...

CITY           SKY/WX    TMP DP  RH WIND       PRES   REMARKS
ALAMOSA        FAIR      14   5  67 CALM      29.94R
DEL NORTE      FAIR      21  10  61 CALM      29.96R
LA VETA PASS   FAIR      32  21  64 S24G39      N/A  WCI  19
SAGUACHE       FAIR      18  10  73 NW6       29.97R WCI   9
$$

COZ035-036-038>040-201600-
...NORTHERN COLORADO FRONT RANGE...

CITY           SKY/WX    TMP DP  RH WIND       PRES   REMARKS
DENVER INTL AP MOCLDY    35  17  47 SW7       29.76R WCI  29
DMNS CITY PARK NOT AVBL
AURORA         MOCLDY    41  17  38 W7        29.76R
FRONT RANGE AP MOCLDY    37  19  48 W10G18    29.76R
ERIE MUNI ARPT FAIR      25  18  75 CALM      29.82R
BOULDER MUN AP FAIR      34  19  55 CALM      29.76R
CENTENNIAL     MOCLDY    43  16  33 S7        29.77R
BROOMFIELD     PTCLDY    39  16  38 NW6       29.76R
FORT COLLINS   FAIR      31  21  66 VRB3      29.77R
LONGMONT       FAIR      28  20  72 CALM      29.78R
$$

COZ041-046-047-076>085-087-088-201600-
...PIKES PEAK/PALMER DIVIDE AND SOUTHERN FOOTHILLS...

CITY           SKY/WX    TMP DP  RH WIND       PRES   REMARKS
COLO. SPRINGS  MOCLDY    50  18  28 W21       29.82R
A. F. ACADEMY  FAIR      33  13  44 CALM      29.82R
SCHRIEVER AFB  FAIR      48  16  28 NW16      29.80S
CHEYENNE MTN   FAIR      48  15  26 SE10G17   29.78R
ELLICOTT         N/A    N/A N/A N/A SW12      29.80R
FALCON         FAIR      45  14  28 SW12      29.84S
FORT CARSON    FAIR      43  17  34 NW13      29.78S
LIMON          FAIR      30  19  63 NW5       29.77R WCI  25
MONUMENT HILL  FAIR      43  16  33 SW13      29.83S
CANON CITY     FAIR      37  18  44 CALM      29.80R
WALSENBURG     FAIR      54  23  30 SW20      29.83F
TRINIDAD       FAIR      43  19  38 W14       29.84S
$$

COZ042>045-048>051-090-091-201600-
...NORTHEAST COLORADO...

CITY           SKY/WX    TMP DP  RH WIND       PRES   REMARKS
GREELEY ARPT   FAIR      23  19  85 N7        29.77R WCI  15
AKRON          FAIR      29  21  72 NE6       29.75R WCI  23
BURLINGTON     FAIR      28  20  71 NW6       29.75R WCI  22
WRAY           FAIR      27  23  86 MISG      29.80R
YUMA           FAIR      25  19  80 N5        29.77R WCI  19
STERLING       FAIR      30  28  93 NE5       29.75F WCI  25
HOLYOKE        FAIR      34  32  93 NE7       29.80R WCI  28
FORT MORGAN    FAIR      28  19  69 S3        29.78R
$$

COZ086-089-092>099-201600-
...SOUTHEAST COLORADO...

CITY           SKY/WX    TMP DP  RH WIND       PRES   REMARKS
PUEBLO         FAIR      35  18  49 NW8       29.77S WCI  29
LA JUNTA       FAIR      43  21  41 SW3       29.76R
LAMAR          FAIR      38  20  48 W7        29.73S
SPRINGFIELD      N/A     50  20  30 NW7       29.75S
$$




USA.gov is the U.S. government's official web portal to all federal, state and local government web resources and services.